Location: Meanaryar
(48.4161°N, 4.7315°W)
Time: 06:27:07
(UTC+00:00)

Cosmos 372 Rocket - Pass Details

Date: 18 September 2020
Orbit: 739 x 767 km, 74.1° (Epoch: 23 October)

Event Time Altitude Azimuth Distance (km) Brightness Sun altitude
Rises 20:24:08 0° 211° (SSW) 3,224 7.3 -19.9°
Reaches altitude 10° 20:26:32 10° 214° (SW) 2,301 6.5 -20.3°
Maximum altitude 20:31:43 63° 296° (WNW) 854 4.4 -21.1°
Drops below altitude 10° 20:36:55 10° 18° (NNE) 2,305 6.6 -21.8°
Sets 20:39:19 0° 21° (NNE) 3,231 7.3 -22.2°
